Overview Statistics Trail Chart Weather Telemetry Raw packets
 

This is the latest recevied weather packets stored in our database for station/object HP3ICC-22. If no packets are shown the sender has not sent any weather packets the latest 10 day(s).

<< 35 36 37 38 39 40 41 >>
Time Temp. Humidity Pressure Rain* Wind** Luminosity Snow
1777181868 10° C 82% 1013 hPa 2.03 mm - - -
1777181808 10° C 82% 1013 hPa 2.03 mm - - -
1777180667 8.89° C 94% 1013 hPa 1.27 mm - - -
1777180607 8.89° C 94% 1013 hPa 1.27 mm - - -
1777179466 9.44° C 94% 1013 hPa 0 mm - - -
1777179406 9.44° C 94% 1013 hPa 0 mm - - -
1777178266 10° C 82% 1013 hPa 1.27 mm - - -
1777178206 10° C 82% 1013 hPa 1.27 mm - - -
1777177066 8.89° C 93% 1013 hPa 0.51 mm - - -
1777177005 8.89° C 93% 1013 hPa 0.51 mm - - -
1777175865 9.44° C 93% 1014 hPa 0.51 mm - - -
1777175805 9.44° C 93% 1014 hPa 0.51 mm - - -
1777174665 10° C 82% 1014 hPa 0.51 mm - - -
1777174605 10° C 82% 1014 hPa 0.51 mm - - -
1777173464 9.44° C 93% 1013 hPa 0.25 mm - - -
1777173404 9.44° C 93% 1013 hPa 0.25 mm - - -
1777172264 10° C 82% 1014 hPa 0.25 mm - - -
1777172204 10° C 82% 1014 hPa 0.25 mm - - -
1777171063 9.44° C 89% 1014 hPa 0.25 mm - - -
1777171003 9.44° C 89% 1014 hPa 0.25 mm - - -
1777169863 9.44° C 84% 1012 hPa 0 mm - - -
1777169802 9.44° C 84% 1012 hPa 0 mm - - -
1777168662 10.56° C 82% 1013 hPa 0 mm - - -
1777168602 10.56° C 82% 1013 hPa 0 mm - - -
1777167462 9.44° C 93% 1013 hPa 0 mm - - -

* Rain latest hour (hover to see other rain measurements)
** Current wind speed in m/s (hover to see current wind gust speed)